• In Netherlands
  • List of Countries
  • For 7 days
  • Water Temperature
  • Satellite Maps
  • Weather Map
  • Weather Widgets
  • user-avatar
    Login

    Hourly Weather Vratsa

    Today, 25 March, Saturday

    Time Temperature Precipitation Wind Pressure Humidity
    00:00 +11°C° 0 mm 1 mps 711 mmHg 75%
    01:00 +11°C° 0 mm 1 mps 711 mmHg 76%
    02:00 +11°C° 0 mm 1 mps 711 mmHg 75%
    03:00 +10°C° 0.1 mm 1 mps 711 mmHg 77%
    04:00 +10°C° 0.1 mm 1 mps 711 mmHg 80%
    05:00 +10°C° 0.1 mm 1 mps 711 mmHg 82%
    06:00 +11°C° 0 mm 1 mps 711 mmHg 79%
    07:00 +12°C° 0 mm 2 mps 712 mmHg 76%
    08:00 +13°C° 0 mm 2 mps 712 mmHg 73%
    09:00 +14°C° 0 mm 2 mps 712 mmHg 70%
    10:00 +14°C° 0 mm 2 mps 713 mmHg 67%
    11:00 +14°C° 0 mm 3 mps 713 mmHg 64%
    12:00 +14°C° 0.1 mm 3 mps 712 mmHg 66%
    13:00 +14°C° 0.1 mm 3 mps 712 mmHg 68%
    14:00 +13°C° 0.1 mm 3 mps 712 mmHg 70%
    15:00 +13°C° 0.1 mm 3 mps 711 mmHg 71%
    16:00 +14°C° 0.1 mm 2 mps 711 mmHg 72%
    17:00 +13°C° 0.1 mm 2 mps 710 mmHg 72%
    18:00 +12°C° 0 mm 2 mps 710 mmHg 78%
    19:00 +11°C° 0 mm 1 mps 710 mmHg 84%
    20:00 +9°C° 0 mm 1 mps 709 mmHg 90%
    21:00 +9°C° 0 mm 1 mps 709 mmHg 91%
    22:00 +9°C° 0 mm 1 mps 709 mmHg 91%
    23:00 +9°C° 0 mm 1 mps 709 mmHg 91%

    Tomorrow, 26 March, Sunday

    Time Temperature Precipitation Wind Pressure Humidity
    00:00 +7°C° 0 mm 2 mps 709 mmHg 91%
    01:00 +7°C° 0 mm 2 mps 708 mmHg 91%
    02:00 +7°C° 0 mm 2 mps 708 mmHg 91%
    03:00 +6°C° 0 mm 2 mps 708 mmHg 91%
    04:00 +6°C° 0 mm 2 mps 707 mmHg 91%
    05:00 +6°C° 0 mm 2 mps 706 mmHg 91%
    06:00 +7°C° 0 mm 2 mps 706 mmHg 87%
    07:00 +8°C° 0 mm 2 mps 706 mmHg 82%
    08:00 +9°C° 0 mm 2 mps 706 mmHg 78%
    09:00 +10°C° 0 mm 3 mps 706 mmHg 73%
    10:00 +10°C° 0 mm 3 mps 706 mmHg 68%
    11:00 +11°C° 0 mm 4 mps 706 mmHg 63%
    12:00 +12°C° 0.1 mm 4 mps 706 mmHg 62%
    13:00 +12°C° 0.1 mm 4 mps 706 mmHg 60%
    14:00 +12°C° 0.1 mm 4 mps 706 mmHg 58%
    15:00 +12°C° 0.1 mm 4 mps 706 mmHg 59%
    16:00 +10°C° 0.1 mm 5 mps 705 mmHg 60%
    17:00 +10°C° 0.1 mm 5 mps 705 mmHg 61%
    18:00 +8°C° 0.4 mm 5 mps 706 mmHg 63%
    19:00 +6°C° 0.4 mm 5 mps 707 mmHg 65%
    20:00 +5°C° 0.4 mm 5 mps 707 mmHg 66%
    21:00 +4°C° 0.2 mm 4 mps 708 mmHg 68%
    22:00 +3°C° 0.2 mm 3 mps 709 mmHg 70%
    23:00 +4°C° 0.2 mm 2 mps 709 mmHg 72%

    Day after tomorrow, 27 March, Monday

    Time Temperature Precipitation Wind Pressure Humidity
    00:00 +3°C° 0.1 mm 2 mps 710 mmHg 76%
    01:00 +3°C° 0.1 mm 2 mps 710 mmHg 80%
    02:00 +3°C° 0.1 mm 2 mps 710 mmHg 84%
    03:00 +3°C° 0.3 mm 2 mps 710 mmHg 85%
    04:00 +3°C° 0.3 mm 2 mps 711 mmHg 87%
    05:00 +2°C° 0.3 mm 2 mps 711 mmHg 88%
    06:00 +3°C° 0.1 mm 2 mps 711 mmHg 86%
    07:00 +2°C° 0.1 mm 3 mps 712 mmHg 84%
    08:00 +2°C° 0.1 mm 3 mps 712 mmHg 81%
    09:00 +3°C° 0 mm 3 mps 712 mmHg 75%
    10:00 +4°C° 0 mm 4 mps 713 mmHg 70%
    11:00 +4°C° 0 mm 4 mps 713 mmHg 64%
    12:00 +5°C° 0 mm 4 mps 713 mmHg 60%
    13:00 +6°C° 0 mm 4 mps 713 mmHg 56%
    14:00 +7°C° 0 mm 4 mps 713 mmHg 53%
    15:00 +8°C° 0 mm 3 mps 713 mmHg 53%
    16:00 +7°C° 0 mm 3 mps 712 mmHg 53%
    17:00 +7°C° 0 mm 3 mps 712 mmHg 54%
    18:00 +6°C° 0 mm 2 mps 712 mmHg 60%
    19:00 +4°C° 0 mm 2 mps 712 mmHg 67%
    20:00 +3°C° 0 mm 1 mps 713 mmHg 74%
    21:00 +3°C° 0 mm 1 mps 713 mmHg 74%
    22:00 +2°C° 0 mm 1 mps 713 mmHg 75%
    23:00 +2°C° 0 mm 1 mps 713 mmHg 76%

    28 March, Tuesday

    Time Temperature Precipitation Wind Pressure Humidity
    00:00 +2°C° 0 mm 1 mps 713 mmHg 76%
    01:00 +1°C° 0 mm 1 mps 713 mmHg 75%
    02:00 +1°C° 0 mm 1 mps 713 mmHg 75%
    03:00 +1°C° 0 mm 1 mps 713 mmHg 75%
    04:00 +1°C° 0 mm 1 mps 713 mmHg 76%
    05:00 0°C° 0 mm 0 mps 713 mmHg 76%
    06:00 +1°C° 0 mm 0 mps 714 mmHg 70%
    07:00 +3°C° 0 mm 0 mps 714 mmHg 63%
    08:00 +5°C° 0 mm 0 mps 715 mmHg 57%
    09:00 +7°C° 0 mm 1 mps 715 mmHg 52%
    10:00 +9°C° 0 mm 1 mps 715 mmHg 47%
    11:00 +11°C° 0 mm 1 mps 715 mmHg 43%
    12:00 +11°C° 0 mm 1 mps 715 mmHg 42%
    13:00 +12°C° 0 mm 1 mps 714 mmHg 41%
    14:00 +13°C° 0 mm 2 mps 714 mmHg 40%
    15:00 +13°C° 0 mm 2 mps 714 mmHg 42%
    16:00 +13°C° 0 mm 2 mps 713 mmHg 43%
    17:00 +12°C° 0 mm 2 mps 713 mmHg 45%
    18:00 +10°C° 0 mm 1 mps 713 mmHg 54%
    19:00 +7°C° 0 mm 1 mps 713 mmHg 63%
    20:00 +5°C° 0 mm 1 mps 713 mmHg 72%
    21:00 +5°C° 0 mm 1 mps 713 mmHg 72%
    22:00 +4°C° 0 mm 1 mps 713 mmHg 73%
    23:00 +4°C° 0 mm 1 mps 713 mmHg 73%

    29 March, Wednesday

    Time Temperature Precipitation Wind Pressure Humidity
    00:00 +4°C° 0 mm 1 mps 713 mmHg 73%
    01:00 +3°C° 0 mm 1 mps 713 mmHg 74%
    02:00 +2°C° 0 mm 0 mps 713 mmHg 74%
    03:00 +2°C° 0 mm 0 mps 713 mmHg 74%
    04:00 +1°C° 0 mm 0 mps 713 mmHg 73%
    05:00 +1°C° 0 mm 0 mps 713 mmHg 73%
    06:00 +3°C° 0 mm 0 mps 713 mmHg 65%
    07:00 +6°C° 0 mm 0 mps 714 mmHg 57%
    08:00 +8°C° 0 mm 0 mps 714 mmHg 49%
    09:00 +11°C° 0 mm 1 mps 715 mmHg 46%
    10:00 +12°C° 0 mm 1 mps 715 mmHg 43%
    11:00 +14°C° 0 mm 1 mps 715 mmHg 40%
    12:00 +15°C° 0 mm 2 mps 714 mmHg 39%
    13:00 +15°C° 0 mm 2 mps 714 mmHg 38%
    14:00 +16°C° 0 mm 2 mps 713 mmHg 37%
    15:00 +16°C° 0 mm 2 mps 713 mmHg 39%
    16:00 +16°C° 0 mm 2 mps 713 mmHg 41%
    17:00 +15°C° 0 mm 2 mps 712 mmHg 43%
    18:00 +13°C° 0 mm 2 mps 712 mmHg 53%
    19:00 +10°C° 0 mm 1 mps 712 mmHg 63%
    20:00 +7°C° 0 mm 1 mps 711 mmHg 73%
    21:00 +7°C° 0 mm 1 mps 711 mmHg 75%
    22:00 +6°C° 0 mm 1 mps 711 mmHg 77%
    23:00 +6°C° 0 mm 1 mps 711 mmHg 79%

    30 March, Thursday

    Time Temperature Precipitation Wind Pressure Humidity
    00:00 +6°C° 0 mm 1 mps 711 mmHg 79%
    01:00 +5°C° 0 mm 1 mps 711 mmHg 80%
    02:00 +4°C° 0 mm 0 mps 711 mmHg 81%
    03:00 +4°C° 0 mm 0 mps 711 mmHg 82%
    04:00 +3°C° 0 mm 0 mps 711 mmHg 82%
    05:00 +3°C° 0 mm 0 mps 711 mmHg 83%
    06:00 +5°C° 0 mm 0 mps 711 mmHg 75%
    07:00 +8°C° 0 mm 0 mps 712 mmHg 67%
    08:00 +10°C° 0 mm 0 mps 713 mmHg 59%
    09:00 +12°C° 0 mm 1 mps 713 mmHg 53%
    10:00 +14°C° 0 mm 1 mps 713 mmHg 47%
    11:00 +16°C° 0 mm 1 mps 713 mmHg 41%
    12:00 +16°C° 0 mm 2 mps 713 mmHg 40%
    13:00 +17°C° 0 mm 2 mps 713 mmHg 38%
    14:00 +18°C° 0 mm 2 mps 713 mmHg 36%
    15:00 +17°C° 0 mm 2 mps 712 mmHg 38%
    16:00 +17°C° 0 mm 2 mps 712 mmHg 40%
    17:00 +17°C° 0 mm 2 mps 712 mmHg 42%
    18:00 +14°C° 0 mm 2 mps 712 mmHg 50%
    19:00 +12°C° 0 mm 1 mps 712 mmHg 58%
    20:00 +9°C° 0 mm 1 mps 712 mmHg 66%
    21:00 +9°C° 0 mm 1 mps 712 mmHg 68%
    22:00 +8°C° 0 mm 1 mps 713 mmHg 71%
    23:00 +7°C° 0 mm 1 mps 713 mmHg 73%
    Show more